DateTimeUTC,F1_A11,F1_S11,BsB_S11,BsG_S11,BsR_S11,BbsB_S11,BbsG_S11,BbsR_S11,BaB_A11,BaG_A11,BaR_A11,Tu_S11,T_S11,Uu_S11,U_S11,P_S11,T1_A11
2021-10-04T07:00:00Z,00000200,21000000,,,,,,,0001.16,0000.99,0000.50,16.3,23.6,,00.0,0667.0,30.9
2021-10-04T07:01:00Z,00000200,21000000,,,,,,,0000.45,0000.68,0000.68,16.3,23.6,,00.0,0667.0,30.9
2021-10-04T07:02:00Z,00000200,21000000,,,,,,,0000.66,0000.61,0000.42,16.3,23.6,,00.0,0667.0,30.9
2021-10-04T07:03:00Z,00000200,61000000,,,,,,,0019.80,0018.49,0014.97,16.3,23.6,,00.0,0667.0,30.9
2021-10-04T07:04:00Z,00000200,41000000,0000.63,0000.44,-000.17,0000.48,0000.10,-000.27,0004.53,0003.82,0003.27,16.7,23.5,,00.0,0668.0,30.9
2021-10-04T07:05:00Z,00000200,01000000,0001.72,0000.78,0000.43,0000.09,0000.24,0000.18,0008.72,0008.48,0006.74,16.8,23.5,,00.0,0668.0,30.9
2021-10-04T07:06:00Z,00000200,01000000,0004.33,0002.72,0001.61,0000.74,0000.90,0000.45,0036.47,0033.64,0026.96,16.9,23.5,,00.0,0668.0,30.9
2021-10-04T07:07:00Z,00000200,01000000,0019.60,0014.47,0008.48,0003.55,0003.15,0002.52,0203.04,0188.06,0153.13,16.9,23.5,,00.0,0668.0,30.9
2021-10-04T07:08:00Z,00000200,01000000,0012.18,0008.85,0005.73,0002.29,0002.26,0001.53,0142.44,0133.54,0109.91,16.9,23.5,,00.0,0668.0,30.9
2021-10-04T07:09:00Z,00000200,01000000,0002.79,0001.89,0001.24,0000.26,0000.64,0000.15,0034.06,0031.75,0025.78,16.9,23.5,,00.0,0668.0,30.9
2021-10-04T07:10:00Z,00000200,01000000,0001.06,0001.08,0000.65,0000.29,0000.52,0000.00,0012.85,0012.24,0009.35,16.8,23.5,,00.0,0668.0,30.9
2021-10-04T07:11:00Z,00000200,01000000,0006.61,0004.10,0002.47,0001.63,0001.17,0000.51,0064.87,0059.81,0048.46,16.8,23.4,,00.0,0668.0,30.9
2021-10-04T07:12:00Z,00000200,01000000,0003.75,0002.18,0001.16,0000.07,0000.15,0000.63,0040.09,0037.54,0030.83,16.7,23.4,,00.0,0668.0,30.9
2021-10-04T07:13:00Z,00000200,01000000,0001.57,0000.91,0000.31,0000.12,0000.20,-000.04,0014.70,0013.12,0011.19,16.7,23.4,,00.0,0668.0,30.9
2021-10-04T07:14:00Z,00000200,01000000,0000.92,0000.42,0000.24,0000.28,-000.05,0000.12,0001.55,0002.18,0001.34,16.6,23.3,,00.0,0668.0,30.8
2021-10-04T07:15:00Z,00000200,01000000,-000.01,0000.43,0000.02,0000.70,0000.26,0000.16,0002.80,0002.90,0002.05,16.6,23.3,,00.0,0668.0,30.9
2021-10-04T07:16:00Z,00000200,01000000,0000.09,0000.49,-000.21,0000.00,-000.13,-000.04,0001.19,0000.59,0000.85,16.6,23.3,,00.0,0668.0,30.9
2021-10-04T07:17:00Z,00000200,01000000,0001.11,0000.54,-000.12,0000.56,0000.05,-000.30,0003.13,0002.99,0002.35,16.7,23.3,,00.0,0668.0,30.9
2021-10-04T07:18:00Z,00000200,01000000,0002.14,0001.42,0000.97,0000.09,0000.46,0000.36,0020.50,0019.31,0015.52,16.7,23.3,,00.0,0668.0,30.9
2021-10-04T07:19:00Z,00000200,01000000,0001.77,0001.71,0000.74,0000.31,0000.51,0000.12,0021.76,0020.06,0016.96,16.8,23.4,,00.0,0668.1,30.9
2021-10-04T07:20:00Z,00000200,01000000,0001.06,0000.65,0000.19,0000.38,-000.01,-000.13,0003.67,0003.82,0002.83,16.9,23.4,,00.0,0668.1,30.9
2021-10-04T07:21:00Z,00000200,01000000,0000.96,0001.03,0000.56,0000.60,0000.30,0000.05,0010.40,0009.28,0007.57,16.9,23.5,,00.0,0668.1,30.9
2021-10-04T07:22:00Z,00000200,01000000,0014.59,0009.91,0006.16,0003.44,0002.37,0001.65,0162.19,0151.26,0122.97,17.0,23.5,,00.0,0668.1,30.9
2021-10-04T07:23:00Z,00000200,01000000,0002.53,0001.74,0000.90,0000.85,0000.20,0000.50,0026.60,0024.53,0019.99,16.9,23.5,,00.0,0668.1,30.9
2021-10-04T07:24:00Z,00000200,01000000,0007.53,0005.89,0003.69,0001.92,0001.61,0000.93,0082.65,0076.31,0062.20,16.9,23.5,,00.0,0668.1,30.9
2021-10-04T07:25:00Z,00000200,01000000,0014.81,0010.59,0006.13,0002.98,0002.39,0001.66,0161.82,0151.04,0122.99,16.9,23.4,,00.0,0668.1,30.9
2021-10-04T07:26:00Z,00000200,01000000,0011.20,0007.95,0005.00,0002.26,0002.02,0001.31,0122.21,0114.07,0093.36,16.8,23.4,,00.0,0668.1,30.9
2021-10-04T07:27:00Z,00000200,01000000,0005.43,0004.09,0002.69,0001.22,0000.92,0000.90,0060.53,0056.73,0046.72,16.8,23.3,,00.0,0668.1,30.9
2021-10-04T07:28:00Z,00000200,01000000,0001.34,0000.34,0000.24,-000.28,0000.36,0000.12,0006.29,0005.68,0005.40,16.7,23.3,,00.0,0668.1,30.9
2021-10-04T07:29:00Z,00000200,01000000,0001.06,0000.44,0000.03,0000.22,0000.10,0000.09,0001.33,0001.48,0001.11,16.6,23.3,,00.0,0668.1,30.9
2021-10-04T07:30:00Z,00000200,01000000,0000.15,0000.58,-000.09,0000.89,-000.09,-000.01,0001.51,0001.48,0000.85,16.6,23.3,,00.0,0668.1,30.9
2021-10-04T07:31:00Z,00000200,01000000,-000.23,0000.17,0000.32,-000.02,0000.08,0000.23,0000.82,0000.73,0000.69,16.6,23.3,,00.0,0668.2,30.9
2021-10-04T07:32:00Z,00000200,01000000,-000.25,0000.10,-000.23,-000.02,0000.17,-000.45,0001.14,0000.78,0001.21,16.7,23.3,,00.0,0668.2,30.9
2021-10-04T07:33:00Z,00000200,01000000,0001.29,0000.65,0000.04,0000.22,0000.01,-000.01,0004.48,0004.32,0002.93,16.7,23.3,,00.0,0668.1,30.9
2021-10-04T07:34:00Z,00000200,01000000,0002.20,0001.96,0001.11,0000.85,0000.30,0000.35,0020.28,0019.00,0015.26,16.8,23.4,,00.0,0668.1,30.9
2021-10-04T07:35:00Z,00000200,01000000,0010.53,0007.72,0004.81,0002.32,0002.02,0001.25,0104.07,0096.89,0079.42,16.8,23.4,,00.0,0668.1,30.9
2021-10-04T07:36:00Z,00040200,01000000,0014.99,0011.93,0007.34,0003.24,0002.54,0002.17,0163.71,0153.07,0125.54,16.9,23.4,,00.0,0668.1,30.9
2021-10-04T07:37:00Z,00040200,01000000,0012.92,0009.20,0005.99,0003.02,0002.19,0001.52,0140.30,0130.74,0107.39,17.0,23.5,,00.0,0668.1,30.9
2021-10-04T07:38:00Z,00040200,01000000,0015.68,0011.76,0007.23,0003.53,0002.78,0001.86,0161.20,0150.25,0122.37,17.0,23.5,,00.0,0668.1,30.9
2021-10-04T07:39:00Z,00040200,01000000,0018.71,0013.94,0009.06,0004.31,0003.30,0002.46,0214.86,0200.86,0165.17,16.9,23.5,,00.0,0668.1,30.9
2021-10-04T07:40:00Z,00040200,01000000,0010.78,0008.43,0004.95,0002.31,0001.65,0000.96,0122.74,0114.73,0094.37,16.9,23.4,,00.0,0668.1,30.9
2021-10-04T07:41:00Z,00040200,01000000,0004.86,0003.69,0002.19,0001.68,0000.59,0000.62,0053.05,0049.34,0040.52,16.9,23.4,,00.0,0668.1,30.9
2021-10-04T07:42:00Z,00040200,01000000,0009.35,0007.51,0004.35,0001.59,0001.97,0001.09,0105.76,0098.34,0080.27,16.8,23.4,,00.0,0668.1,30.9
2021-10-04T07:43:00Z,00140200,01000000,0011.13,0007.83,0005.09,0002.85,0001.84,0001.46,0123.87,0114.64,0092.40,16.7,23.3,,00.0,0668.1,30.8
2021-10-04T07:43:06Z,00140200,01000000,0011.13,0007.83,0005.09,0002.85,0001.84,0001.46,,,,16.7,23.3,,00.0,0668.1,30.8
2021-10-04T07:43:07Z,00140200,01000000,0011.13,0007.83,0005.09,0002.85,0001.84,0001.46,0173.09,0161.40,0126.10,16.7,23.3,,00.0,0668.1,30.8
2021-10-04T07:44:00Z,00000200,01000000,0002.87,0001.84,0001.29,0000.59,0000.53,0000.39,0051.71,0047.82,0037.78,16.7,23.3,,00.0,0668.1,30.8
2021-10-04T07:45:00Z,00000200,01000000,0004.14,0003.06,0001.78,0001.25,0000.61,0000.36,0044.36,0040.36,0031.36,16.7,23.3,,00.0,0668.1,30.8
2021-10-04T07:46:00Z,00000200,01000000,0016.90,0012.33,0007.62,0003.66,0002.80,0002.18,0237.08,0216.40,0169.25,16.7,23.3,,00.0,0668.1,30.8
2021-10-04T07:47:00Z,00000200,01000000,0020.79,0015.50,0010.11,0004.12,0003.68,0002.70,0328.58,0302.23,0238.12,16.7,23.3,,00.0,0668.1,30.8
2021-10-04T07:48:00Z,00000200,01000000,0010.49,0007.20,0004.78,0001.64,0001.84,0001.13,0171.67,0158.76,0125.82,16.7,23.3,,00.0,0668.2,30.8
2021-10-04T07:49:00Z,00000200,01000000,0000.65,0000.42,0000.49,-000.20,0000.17,-000.07,0007.90,0007.03,0005.59,16.8,23.4,,00.0,0668.1,30.8
2021-10-04T07:50:00Z,00000200,01000000,0001.08,0000.30,0000.37,0000.29,-000.12,0000.02,0002.55,0002.15,0001.92,16.9,23.4,,00.0,0668.2,30.9
2021-10-04T07:51:00Z,00000200,01000000,0000.34,0000.26,0000.13,0000.03,0000.02,-000.01,0001.60,0001.40,0001.14,16.9,23.4,,00.0,0668.2,30.9
2021-10-04T07:52:00Z,00000200,01000000,0000.72,0000.14,-000.03,-000.13,0000.05,-000.18,0000.96,0001.24,0000.66,17.0,23.4,,00.0,0668.2,30.9
2021-10-04T07:53:00Z,00000200,01000000,0000.65,0000.23,0000.35,0000.59,-000.09,-000.02,0001.42,0001.50,0001.12,17.0,23.5,,00.0,0668.2,30.9
2021-10-04T07:54:00Z,00000200,01000000,0000.89,0000.61,0000.15,0000.19,-000.03,-000.15,0002.81,0002.19,0001.77,17.0,23.5,,00.0,0668.2,30.9
2021-10-04T07:55:00Z,00000200,01000000,0000.98,0000.66,0000.21,0000.09,0000.00,-000.05,0005.37,0004.74,0004.14,16.9,23.4,,00.0,0668.2,30.8
2021-10-04T07:56:00Z,00000200,01000000,0001.40,0000.62,0000.10,0000.65,-000.01,0000.11,0005.69,0005.73,0003.93,16.9,23.4,,00.0,0668.1,30.8
2021-10-04T07:57:00Z,00000200,41000000,,,,,,,0004.93,0004.18,0003.41,16.9,23.4,,00.0,0668.1,30.8
2021-10-04T07:58:00Z,00000200,61000000,,,,,,,0001.30,0001.26,0001.09,16.5,23.5,,00.0,0667.2,30.8
2021-10-04T07:59:00Z,00000200,21000000,,,,,,,0000.82,0000.66,0000.26,16.4,23.6,,00.0,0667.2,30.8
